TIME,DELAY(SENSOR),PRES,OXYGEN,RAWTEMP,T(OPTODE),TCPHASE,FLUOR,BETA(BETA700),BETA(BETA412),BETA(BETA440),CDOM,C(CSC),ED(ED412.20),ED(ED444.00),ED(ED489.60),ED(ED554.30),LU(LU412.10),LU(LU443.90),LU(LU489.70),LU(LU554.70),COMP,TILTX,TILTY,CHECK
1337655744,5809,899.7600097656250000,32.3257904052734400,567.2713012695312000,4.2603259086608890,56.7813987731933600,56,100,101,78,84,15505,0,0,0,0,2147122934,2147782025,2147571273,2147569773,1368,2,13,27311
1337659340,5809,969.3499755859375000,43.5904083251953100,571.2719726562500000,4.1360259056091310,55.1035804748535160,55,99,101,79,83,15505,0,0,0,0,2147124800,2147773513,2147574226,2147570944,3012,2,13,56735
1337662940,5809,983.9299926757812000,45.0194396972656250,573.3214111328125000,4.0723018646240230,54.9231300354003900,55,101,101,78,82,15503,0,0,0,0,2147125238,2147778240,2147576704,2147572763,286,2,13,41122
1337666540,5807,993.7600097656250000,44.8999099731445300,574.0512695312500000,4.0495948791503910,54.9519882202148440,54,100,104,79,83,15496,0,0,0,0,2147125622,2147774464,2147574208,2147570157,311,2,13,38680
1337670140,5811,995.5700073242188000,44.8525505065918000,573.3303222656250000,4.0720229148864750,54.9499588012695300,54,98,103,78,83,15502,0,0,0,0,2147125741,2147773778,2147577581,2147570267,3432,2,13,40144
1337673740,5807,997.4600219726562000,44.4751510620117200,574.0739746093750000,4.0488891601562500,55.0076713562011700,56,98,101,78,83,15499,0,0,0,0,2147124324,2147775744,2147574171,2147572022,279,2,13,47356
1337677340,5810,999.5399780273438000,44.5316886901855500,573.9757080078125000,4.0519471168518070,55.0010604858398440,55,99,101,78,84,15501,0,0,0,0,2147123803,2147770221,2147573997,2147574354,413,2,13,29873
1337680940,5810,999.1199951171875000,43.4556694030761700,573.3421020507812000,4.0716547966003420,55.1451416015625000,55,100,102,78,83,15499,0,0,0,0,2147125184,2147773915,2147574052,2147572489,202,2,13,64126
1337684540,5809,1002.2700195312500000,43.7982292175293000,573.4448242187500000,4.0684618949890140,55.0942802429199200,55,99,102,78,83,15499,0,0,0,0,2147124571,2147777792,2147575771,2147573878,100,2,13,11544
1337688140,5809,1000.9500122070312000,43.7803497314453100,574.4307250976562000,4.0377922058105470,55.1122093200683600,55,98,103,79,83,15500,0,0,0,0,2147123858,2147777490,2147577947,2147572973,59,2,13,46792
1337691740,5809,1001.0200195312500000,43.5830307006835940,574.4313964843750000,4.0377688407897950,55.1367683410644500,55,102,101,78,83,15500,0,0,0,0,2147124964,2147775305,2147576886,2147573522,102,2,13,1232
1337695340,5810,1000.3599853515625000,44.8503303527832000,574.9680786132812000,4.0210700035095215,54.9640693664550800,54,99,102,79,83,15497,0,0,0,0,2147123218,2147781211,2147573110,2147571894,128,2,13,49463
1337698940,5809,1003.4500122070312000,45.0474281311035160,575.0634765625000000,4.0180988311767580,54.9402084350585940,55,100,101,79,84,15496,0,0,0,0,2147123529,2147780973,2147576576,2147571968,7,2,13,30099
1337702540,5809,996.1400146484375000,44.2609214782714840,574.4105834960938000,4.0384140014648440,55.0456199645996100,55,101,100,77,84,15496,0,0,0,0,2147125513,2147773933,2147574811,2147573019,472,2,13,46218
1337706140,5810,1001.5900268554688000,44.6367988586425800,575.9583740234375000,3.9902479648590090,55.0074501037597660,56,101,102,78,84,15499,0,0,0,0,2147125878,2147776374,2147572068,2147572745,168,2,13,4831
1337709740,5810,1007.2899780273438000,43.9336891174316400,576.6857910156250000,3.9676060676574707,55.1117782592773440,56,98,102,78,84,15497,0,0,0,0,2147125741,2147780617,2147579931,2147571821,412,2,13,18209
1337713340,5812,1003.3099975585938000,44.1567916870117200,576.5269165039062000,3.9725530147552490,55.0849304199218750,55,102,102,79,83,15491,0,0,0,0,2147122605,2147779666,2147571958,2147572690,77,2,13,44807
1337716940,5809,1007.3499755859375000,43.5827407836914060,577.5510864257812000,3.9406640529632570,55.1744918823242200,55,98,101,77,84,15488,0,0,0,0,2147127478,2147774774,2147573138,2147572626,326,2,13,28895
1337720540,5810,1011.5100097656250000,44.6135787963867200,573.8104248046875000,4.0570888519287110,54.9902191162109400,55,99,117,78,84,15493,0,0,0,0,2147123309,2147776649,2147577508,2147570578,2917,2,13,19784
1337724140,5810,1007.0800170898438000,44.3093109130859400,574.4318847656250000,4.0377521514892580,55.0368804931640600,55,99,100,79,84,15491,0,0,0,0,2147120969,2147776402,2147574098,2147571062,3462,2,13,40097
1337727740,5809,1010.2199707031250000,44.0207099914550800,574.5952758789062000,4.0326690673828125,55.0829811096191400,55,100,101,77,84,15490,0,0,0,0,2147122861,2147776978,2147574930,2147571401,3515,2,13,32773
1337731340,5811,1015.9799804687500000,44.4654083251953100,574.5651855468750000,4.0336060523986820,55.0185813903808600,55,100,102,79,83,15490,0,0,0,0,2147125787,2147780114,2147574107,2147571885,3453,2,13,24524
1337734940,5810,1015.1799926757812000,43.9185905456543000,573.6785278320312000,4.0611920356750490,55.0839805603027340,55,101,103,78,84,15492,0,0,0,0,2147126902,2147774912,2147574582,2147573037,255,2,13,19359
1337738540,5808,1013.1199951171875000,43.8765792846679700,573.8403930664062000,4.0561561584472660,55.0900115966796900,55,99,102,78,84,15494,0,0,0,0,2147126345,2147779940,2147577243,2147574061,136,2,13,29915
1337742140,5811,1006.4099731445312000,43.9283599853515600,573.7429809570312000,4.0591831207275390,55.0840797424316400,56,101,102,78,84,15492,0,0,0,0,2147126052,2147779565,2147576018,2147571154,304,2,13,48432
1337745740,5809,1008.5100097656250000,43.8757286071777340,576.5402832031250000,3.9721341133117676,55.1215782165527340,54,100,101,78,84,15491,0,0,0,0,2147124726,2147777901,2147575561,2147574244,54,2,13,47927
1337749340,5810,1014.7399902343750000,43.8235702514648440,576.2410278320312000,3.9814529418945312,55.1219596862793000,55,100,102,79,85,15484,0,0,0,0,2147126390,2147776045,2147577024,2147570093,256,2,13,24539
1337752940,5811,1011.2500000000000000,43.1531295776367200,574.8740234375000000,4.0239958763122560,55.2033691406250000,55,100,103,78,84,15484,0,0,0,0,2147123766,2147773668,2147572608,2147570514,89,2,13,30666
1337756540,5806,1011.7299804687500000,43.1927490234375000,576.2495117187500000,3.9811899662017822,55.2132606506347660,55,99,102,80,85,15483,0,0,0,0,2147124571,2147780352,2147572982,2147571867,187,2,13,63467
1337760140,5807,1012.1900024414062000,44.2339706420898440,576.4932250976562000,3.9736020565032960,55.0737800598144500,55,99,101,78,83,15478,0,0,0,0,2147124626,2147778779,2147573714,2147572772,140,2,13,44924
1337763740,5809,1010.0399780273438000,44.0616416931152340,576.7288208007812000,3.9662690162658690,55.0967712402343750,55,100,102,78,83,15482,0,0,0,0,2147124242,2147778816,2147573997,2147572242,152,2,13,27368
1337767340,5812,1008.5000000000000000,44.6861190795898440,578.9957275390625000,3.8956699371337890,55.0329589843750000,55,99,101,79,84,15484,0,0,0,0,2147124480,2147774235,2147573586,2147572745,3566,2,13,54549
1337770940,5809,1016.2500000000000000,44.6902198791503900,576.3760986328125000,3.9772469997406006,55.0060615539550800,54,100,102,78,83,15482,0,0,0,0,2147126153,2147777773,2147575286,2147570432,202,2,13,39314
1337774540,5811,1019.0399780273438000,44.7957801818847660,576.3519287109375000,3.9779989719390870,54.9905509948730500,54,101,103,79,82,15481,0,0,0,0,2147124196,2147779602,2147573467,2147570093,3053,2,13,33678
1337778140,5811,1012.2600097656250000,44.6768913269043000,574.6301879882812000,4.0315818786621090,54.9840202331543000,55,100,102,76,84,15484,0,0,0,0,2147125842,2147779172,2147574930,2147571629,548,2,13,29406
1337781740,5808,1020.5999755859375000,44.8334503173828100,574.5379028320312000,4.0344557762146000,54.9625282287597660,55,100,102,79,85,15478,0,0,0,0,2147126729,2147773705,2147573220,2147569234,263,2,13,48397
1337785340,5810,1015.6900024414062000,43.7417984008789060,574.0725708007812000,4.0489311218261720,55.1120109558105500,55,100,102,78,84,15483,0,0,0,0,2147124873,2147776914,2147572772,2147572452,494,2,13,6711
1337788940,5810,1020.5499877929688000,43.1803703308105500,573.8989257812500000,4.0543351173400880,55.1891212463378900,55,99,102,79,84,15479,0,0,0,0,2147122916,2147780150,2147577261,2147573787,147,2,13,52167
1337792540,5811,1023.1199951171875000,42.7225990295410160,573.0795288085938000,4.0798239707946780,55.2490997314453100,55,98,101,78,83,15480,0,0,0,0,2147124626,2147775524,2147573769,2147575716,81,2,13,14923
1337796140,5809,1021.5300292968750000,42.4468193054199200,573.5092163085938000,4.0664601325988770,55.2955894470214840,56,98,103,78,84,15480,0,0,0,0,2147123456,2147778834,2147569755,2147571876,138,2,13,59057
1337799740,5810,1019.2000122070312000,42.5743789672851560,573.9799804687500000,4.0518112182617190,55.2768402099609400,55,98,101,78,83,15482,0,0,0,0,2147125915,2147779373,2147567579,2147575195,102,2,13,30422
1337800555,5811,1015.3699951171875000,42.7847900390625000,573.8850708007812000,4.0547661781311035,55.2493400573730500,55,100,101,79,83,15479,0,0,0,0,2147126966,2147778715,2147573696,2147572717,3444,2,13,43654
